Regional Weather Roundup
Issued by NWS New Orleans/Baton Rouge, LA

Home | Current Version | Previous Version | Text Only | Print | Product List | Glossary On
Versions: 1 2 3 4 5 6 7 8 9 10 11 12 13 14 15 16 17 18 19 20 21 22 23 24 25 26 27 28 29 30 31 32 33 34 35 36 37 38 39 40 41 42 43 44 45 46 47 48 49 50
000
ASUS44 KLIX 191811
RWRLIX
NEW ORLEANS REGIONAL WEATHER ROUNDUP
NATIONAL WEATHER SERVICE NEW ORLEANS LA
100 PM CDT SUN APR 19 2015

NOTE: "FAIR" INDICATES FEW OR NO CLOUDS BELOW 12,000 FEET WITH NO
      SIGNIFICANT WEATHER AND/OR OBSTRUCTIONS TO VISIBILITY.
      SKY/WX - SKY CONDITION AND SIGNIFICANT WEATHER.
      TMP - AIR TEMPERATURE.     DP    - DEWPOINT TEMPERATURE.
      RH  - RELATIVE HUMIDITY.   PRES  - PRESSURE.
      HI  - HEAT INDEX.          WCI   - WIND CHILL INDEX.

*  THESE STATIONS ARE NOT NWS OR FAA STATIONS AND ARE NOT UNDER
   NWS QUALITY CONTROL.

LAZ038-040-048-061>063-065>067-069-191900-
SOUTHEAST LOUISIANA

CITY           SKY/WX    TMP DP  RH WIND       PRES   REMARKS
N.O. AUDUBON     N/A     86  64  47 MISG        N/A
6HR MIN TEMP:  70; 6HR MAX TEMP:  87;

N.O. INTL ARPT MOSUNNY   83  59  44 W15       29.82F
6HR MIN TEMP:  71; 6HR MAX TEMP:  83;

N.O. LAKEFRONT SUNNY     83  66  56 W10       29.83S
6HR MIN TEMP:  74; 6HR MAX TEMP:  83;

SLIDELL        SUNNY     82  63  52 W10G18    29.80F
6HR MIN TEMP:  72; 6HR MAX TEMP:  83;

BATON ROUGE    SUNNY     80  59  48 W8        29.83F
6HR MIN TEMP:  67; 6HR MAX TEMP:  81;

BOOTHVILLE     SUNNY     78  68  71 SW13      29.84F
6HR MIN TEMP:  72; 6HR MAX TEMP:  78;

BELLE CHASSE   SUNNY     84  56  38 W9        29.82F
6HR MIN TEMP:  71; 6HR MAX TEMP:  84;

BOGALUSA*        N/A     84  56  38 W15       29.82S
6HR MIN TEMP:  70; 6HR MAX TEMP:  84;

GALLIANO*      CLEAR     82  67  61 SW10      29.84F
6HR MIN TEMP:  73; 6HR MAX TEMP:  82;

NEW ROADS*       N/A     79  59  50 W10       29.83F
6HR MIN TEMP:  66; 6HR MAX TEMP:  79;

GONZALES*        N/A     81  60  49 W8        29.82F
6HR MIN TEMP:  69; 6HR MAX TEMP:  81;

HAMMOND*       SUNNY     82  54  36 NW10      29.83S
HOUMA*         SUNNY     82  61  47 SW15      29.84S
PORT FOURCHON* CLEAR     77  70  78 SW10G18   29.87F

$$

MSZ070-080>082-191900-
SOUTHERN MISSISSIPPI

CITY           SKY/WX    TMP DP  RH WIND       PRES   REMARKS
MCCOMB         SUNNY     79  59  50 W14G20    29.81F
6HR MIN TEMP:  67; 6HR MAX TEMP:  79;

GULFPORT       PTSUNNY   78  69  73 S8        29.82S
6HR MIN TEMP:  72; 6HR MAX TEMP:  78;

BILOXI         PTSUNNY   79  71  75 SW15      29.82F
6HR MIN TEMP:  72; 6HR MAX TEMP:  79;

PASCAGOULA     PTSUNNY   79  70  74 SW10G21   29.82F
6HR MIN TEMP:  71; 6HR MAX TEMP:  79;

STENNIS ARPT*  MOSUNNY   81  61  50 MISG      29.81F

$$

COASTAL OBSERVATIONS
LAKE AND NEARSHORE STATIONS

STATION/POSITION TIME  TEMP    WIND        PRES    WAVE
                       AIR SEA DIR/SP/G            HT/PER
                 (UTC) (F)     (DEG/KT/KT) (MB)    (FT/S)
PASCAGOULA       1700   77     190/  7/  9 1009.6
WAVELAND YACHT   1700   76 74  200/ 11/ 15 1009.9
GRAND ISLE       1700   76 75  200/  9/ 16 1010.7
SOUTHWEST PASS   1700   72 63  230/ 11/ 12 1011.5
NEW CANAL        1700   81     280/  6/ 14 1010.3
SHELL BEACH      1700   76 75  210/ 12/ 15 1009.9

OFFSHORE STATIONS

STATION/POSITION TIME  TEMP    WIND        PRES    WAVE
                       AIR SEA DIR/SP/G            HT/PER
                 (UTC) (F)     (DEG/KT/KT) (MB)    (FT/S)
64 S DAUPHIN ISL 1750   74 74  240/ 17/ 19 1010.7    6/ 7

$$




USA.gov is the U.S. government's official web portal to all federal, state and local government web resources and services.